Waarnemingen

Advertentie
Mijn weer
Ouessant, Frankrijk (7100): temperatuur & dauwpunt: 26.05.2020 03:00:00 - 01.06.2020 03:00:00 (CEST)Ouessant, Frankrijk (7100): windsnelheid & windstoten: 26.05.2020 03:00:00 - 01.06.2020 03:00:00 (CEST)Ouessant, Frankrijk (7100): windrichting: 26.05.2020 03:00:00 - 01.06.2020 03:00:00 (CEST)Ouessant, Frankrijk (7100): luchtdruk: 26.05.2020 03:00:00 - 01.06.2020 03:00:00 (CEST)Ouessant, Frankrijk (7100): zicht: 26.05.2020 03:00:00 - 01.06.2020 03:00:00 (CEST)Ouessant, Frankrijk (7100): neerslag: 26.05.2020 03:00:00 - 01.06.2020 03:00:00 (CEST)
Datum & Tijd tt [°C] td [°C] ff [km/u] ff [kn] fx [km/u] fx [kn] dd ppp [hPa] vv [km] rr [mm]
01.06.2020 03:00:00 14,7 9,7 35 19 45 24 ONO 1017,2 - 0,0
01.06.2020 02:00:00 15,3 9,4 32 18 47 25 ONO 1017,4 - 0,0
01.06.2020 01:00:00 15,9 9,3 35 19 46 25 O 1017,3 - 0,0
01.06.2020 00:00:00 16,0 10,1 41 22 50 27 O 1016,8 - 0,0
31.05.2020 23:00:00 16,1 11,3 42 23 51 27 ONO 1016,2 30 0,0
31.05.2020 22:00:00 16,6 11,3 41 22 60 32 ONO 1015,9 - 0,0
31.05.2020 21:00:00 17,0 11,3 48 26 64 35 ONO 1015,3 - 0,0
31.05.2020 20:00:00 17,7 11,3 42 23 60 33 ONO 1015,2 30 0,0
31.05.2020 19:00:00 18,2 11,3 42 23 61 33 ONO 1015,1 - 0,0
31.05.2020 18:00:00 18,9 10,7 30 16 50 27 ONO 1015,6 - 0,0
31.05.2020 17:00:00 19,0 10,5 35 19 54 29 ONO 1015,5 30 0,0
31.05.2020 16:00:00 19,4 11,4 30 16 45 24 NO 1015,5 - 0,0
31.05.2020 15:00:00 19,4 11,9 25 13 37 20 NO 1015,8 - 0,0
31.05.2020 14:00:00 18,7 12,7 25 13 36 20 NO 1015,9 - 0,0
31.05.2020 13:00:00 18,9 12,6 25 14 35 19 NO 1016,0 - 0,0
31.05.2020 12:00:00 18,4 11,9 25 14 36 19 NO 1016,0 - 0,0
31.05.2020 11:00:00 20,1 11,8 21 11 25 13 ONO 1016,2 30 0,0
31.05.2020 10:00:00 19,2 9,9 20 11 38 21 OZO 1016,1 - 0,0
31.05.2020 09:00:00 17,2 10,1 31 17 46 25 OZO 1015,5 - 0,0
31.05.2020 08:00:00 16,1 10,0 34 18 47 25 ZO 1015,5 30 0,0
31.05.2020 07:00:00 15,5 10,0 27 14 35 19 ZO 1015,3 - 0,0
31.05.2020 06:00:00 16,0 9,6 23 12 32 18 ZO 1015,2 - 0,0
31.05.2020 05:00:00 14,6 10,0 13 7 19 11 OZO 1015,2 - 0,0
31.05.2020 04:00:00 14,0 9,8 17 9 20 11 O 1015,5 - 0,0
31.05.2020 03:00:00 13,9 11,2 16 9 22 12 ONO 1015,8 - 0,0
31.05.2020 02:00:00 14,8 11,0 17 9 27 14 ONO 1016,3 - 0,0
31.05.2020 01:00:00 17,5 9,1 26 14 38 21 O 1016,5 - 0,0
31.05.2020 00:00:00 18,3 8,8 37 20 46 25 O 1016,4 - 0,0
30.05.2020 23:00:00 17,1 10,2 44 24 50 27 O 1016,3 30 0,0
30.05.2020 22:00:00 15,7 11,3 32 17 49 27 ONO 1015,9 - 0,0
30.05.2020 21:00:00 16,5 11,0 38 21 50 27 ONO 1015,6 - 0,0
30.05.2020 20:00:00 16,8 11,5 36 19 53 29 NO 1015,8 30 0,0
30.05.2020 19:00:00 17,3 11,6 37 20 55 30 NO 1015,9 - 0,0
30.05.2020 18:00:00 17,9 10,5 39 21 57 31 NO 1016,2 - 0,0
30.05.2020 17:00:00 18,4 10,2 36 20 51 27 ONO 1016,5 - 0,0
30.05.2020 16:00:00 19,5 11,3 27 14 40 21 NO 1017,1 - 0,0
30.05.2020 15:00:00 18,9 12,2 24 13 37 20 NO 1017,6 - 0,0
30.05.2020 14:00:00 19,0 11,8 16 9 26 14 NO 1018,0 30 0,0
30.05.2020 13:00:00 21,3 11,3 16 9 21 11 NO 1018,4 - 0,0
30.05.2020 12:00:00 21,3 8,5 8 5 22 12 OZO 1018,5 - 0,0
30.05.2020 11:00:00 19,9 8,6 18 10 25 14 ZO 1018,5 30 0,0
30.05.2020 10:00:00 18,4 9,7 18 10 29 16 ZO 1018,5 - 0,0
30.05.2020 09:00:00 17,2 9,6 21 12 32 17 ZO 1018,4 - 0,0
30.05.2020 08:00:00 15,5 9,4 21 12 29 16 ZO 1018,4 - 0,0
30.05.2020 07:00:00 15,2 8,9 20 11 29 16 ZO 1018,3 - 0,0
30.05.2020 06:00:00 15,2 9,5 19 11 27 15 ZO 1018,2 - 0,0
30.05.2020 05:00:00 13,9 10,9 16 8 20 11 OZO 1018,6 - 0,0
30.05.2020 04:00:00 13,7 10,5 13 7 23 13 O 1019,0 - 0,0
30.05.2020 03:00:00 14,7 10,5 17 9 24 13 ONO 1019,1 - 0,0
30.05.2020 02:00:00 15,5 10,0 16 9 29 16 O 1019,4 - 0,0
30.05.2020 01:00:00 15,5 10,5 25 13 41 22 O 1019,4 - 0,0
30.05.2020 00:00:00 16,5 10,8 39 21 42 23 O 1019,3 - 0,0
29.05.2020 23:00:00 16,3 11,4 19 10 29 16 O 1019,4 - 0,0
29.05.2020 22:00:00 15,2 11,6 21 11 33 18 NO 1019,2 - 0,0
29.05.2020 21:00:00 16,9 11,4 11 6 33 18 O 1019,4 - 0,0
29.05.2020 20:00:00 17,5 11,5 26 14 34 19 NO 1019,4 20 0,0
29.05.2020 19:00:00 17,4 11,7 26 14 39 21 NO 1019,5 - 0,0
29.05.2020 18:00:00 18,1 11,6 27 15 46 25 NO 1019,7 - 0,0
29.05.2020 17:00:00 17,8 11,6 28 15 42 23 NO 1020,4 - 0,0
29.05.2020 16:00:00 17,9 12,1 24 13 36 19 NO 1020,9 - 0,0
29.05.2020 15:00:00 17,7 12,8 17 9 29 16 NNO 1021,3 - 0,0
29.05.2020 14:00:00 18,6 12,8 19 10 29 16 NO 1021,7 - 0,0
29.05.2020 13:00:00 19,8 12,8 16 8 23 13 NO 1022,2 - 0,0
29.05.2020 12:00:00 20,6 12,6 10 5 18 10 ONO 1022,4 - 0,0
29.05.2020 11:00:00 20,2 10,3 12 6 21 12 OZO 1022,4 25 0,0
29.05.2020 10:00:00 18,7 10,0 18 10 25 14 OZO 1022,6 - 0,0
29.05.2020 09:00:00 17,3 9,2 19 10 24 13 OZO 1022,5 - 0,0
29.05.2020 08:00:00 16,0 9,2 18 10 28 15 OZO 1022,6 25 0,0
29.05.2020 07:00:00 14,7 9,9 19 10 29 16 OZO 1022,7 - 0,0
29.05.2020 06:00:00 13,6 10,8 18 10 26 14 OZO 1022,7 - 0,0
29.05.2020 05:00:00 13,9 10,5 24 13 31 17 O 1022,8 - 0,0
29.05.2020 04:00:00 13,7 10,7 23 12 28 15 O 1023,1 - 0,0
29.05.2020 03:00:00 13,8 10,8 24 13 - - O 1023,3 - -
29.05.2020 02:00:00 13,7 10,7 21 11 27 15 O 1023,7 15 0,0
29.05.2020 01:00:00 13,8 10,6 21 12 29 16 O 1024,2 - 0,0
29.05.2020 00:00:00 13,7 10,7 24 13 40 22 O 1024,4 - 0,0
28.05.2020 23:00:00 13,9 11,2 34 19 53 29 ONO 1024,4 15 0,0
28.05.2020 22:00:00 14,2 11,2 38 20 53 29 ONO 1024,2 - 0,0
28.05.2020 21:00:00 14,6 11,4 38 21 62 33 ONO 1024,2 - 0,0
28.05.2020 20:00:00 15,2 11,2 44 24 65 35 ONO 1024,3 - 0,0
28.05.2020 19:00:00 15,5 10,5 48 26 67 36 ONO 1024,6 - 0,0
28.05.2020 18:00:00 15,8 10,5 50 27 68 37 ONO 1025,0 - 0,0
28.05.2020 17:00:00 16,3 10,4 50 27 67 36 ONO 1025,3 20 0,0
28.05.2020 16:00:00 16,5 11,0 47 25 61 33 ONO 1026,3 - 0,0
28.05.2020 15:00:00 16,4 11,3 47 26 61 33 ONO 1026,9 - 0,0
28.05.2020 14:00:00 17,3 11,8 44 24 58 31 ONO 1027,3 - 0,0
28.05.2020 13:00:00 17,4 11,9 37 20 50 27 NO 1027,7 - 0,0
28.05.2020 12:00:00 17,4 12,3 34 18 45 25 ONO 1028,1 - 0,0
28.05.2020 11:00:00 17,7 12,2 35 19 43 23 ONO 1028,5 20 0,0
28.05.2020 10:00:00 16,7 12,2 29 16 37 20 ONO 1029,0 - 0,0
28.05.2020 09:00:00 15,5 11,5 30 16 36 19 ONO 1029,1 - 0,0
28.05.2020 08:00:00 14,2 11,2 21 11 29 16 O 1029,4 - 0,0
28.05.2020 07:00:00 13,8 11,0 28 15 30 16 O 1029,2 - 0,0
28.05.2020 06:00:00 13,6 10,9 22 12 34 19 O 1029,5 - 0,0
28.05.2020 05:00:00 14,2 10,6 29 16 37 20 O 1029,5 - 0,0
28.05.2020 04:00:00 14,3 10,7 31 17 42 23 O 1029,6 - 0,0
28.05.2020 03:00:00 15,3 10,5 36 19 45 24 O 1029,9 - 0,0
28.05.2020 02:00:00 15,4 10,6 34 18 41 22 O 1030,5 - 0,0
28.05.2020 01:00:00 14,8 11,2 35 19 54 29 O 1030,8 - 0,0
28.05.2020 00:00:00 15,1 11,1 40 21 50 27 ONO 1031,0 - 0,0
27.05.2020 23:00:00 15,1 10,9 40 22 54 29 ONO 1031,0 20 0,0
27.05.2020 22:00:00 15,3 10,5 43 23 58 31 ONO 1030,7 - 0,0
27.05.2020 21:00:00 15,8 10,3 39 21 51 27 ONO 1030,8 - 0,0
27.05.2020 20:00:00 16,2 10,5 36 19 53 29 ONO 1030,9 - 0,0
27.05.2020 19:00:00 16,5 11,4 36 20 53 28 NO 1031,1 - 0,0
27.05.2020 18:00:00 17,1 10,9 37 20 51 28 NO 1031,3 - 0,0
27.05.2020 17:00:00 18,1 11,4 28 15 42 23 NO 1031,6 20 0,0
27.05.2020 16:00:00 18,4 11,7 26 14 40 21 NO 1031,9 - 0,0
27.05.2020 15:00:00 17,7 11,9 27 15 38 20 NNO 1032,5 - 0,0
27.05.2020 14:00:00 16,9 11,8 26 14 35 19 NNO 1032,9 - 0,0
27.05.2020 13:00:00 17,4 11,7 22 12 35 19 NO 1033,2 - 0,0
27.05.2020 12:00:00 16,8 12,1 20 11 32 17 NNO 1033,4 - 0,0
27.05.2020 11:00:00 16,4 11,8 24 13 37 20 NO 1033,5 - 0,0
27.05.2020 10:00:00 15,7 11,7 18 10 29 16 NO 1033,8 - 0,0
27.05.2020 09:00:00 14,6 11,7 20 11 27 15 NO 1033,9 - 0,0
27.05.2020 08:00:00 13,5 10,8 16 9 26 14 ONO 1033,8 15 0,0
27.05.2020 07:00:00 12,7 10,8 18 10 26 14 NO 1033,6 - 0,0
27.05.2020 06:00:00 12,5 11,2 19 10 30 16 NO 1033,7 - 0,0
27.05.2020 05:00:00 12,6 11,5 22 12 33 18 NO 1033,7 - 0,2
27.05.2020 04:00:00 12,8 12,2 22 12 29 16 NO 1033,9 - 0,0
27.05.2020 03:00:00 12,8 12,2 19 11 31 17 NO 1034,2 - 0,0
27.05.2020 02:00:00 12,9 12,1 26 14 36 19 NNO 1034,4 - 0,0
27.05.2020 01:00:00 13,0 11,7 27 14 33 18 NNO 1034,4 - 0,0
27.05.2020 00:00:00 12,9 11,3 20 11 29 16 NO 1034,7 - 0,0
26.05.2020 23:00:00 13,3 10,8 23 12 31 17 NO 1034,7 20 0,0
26.05.2020 22:00:00 13,7 10,5 24 13 35 19 NNO 1034,6 - 0,0
26.05.2020 21:00:00 14,5 11,5 27 14 36 20 NNO 1034,5 - 0,0
26.05.2020 20:00:00 15,3 11,5 30 16 42 23 NNO 1034,2 20 0,0
26.05.2020 19:00:00 15,8 12,0 29 15 41 22 NNO 1034,3 - 0,0
26.05.2020 18:00:00 16,5 12,3 28 15 37 20 NNO 1034,6 - 0,0
26.05.2020 17:00:00 16,5 12,3 22 12 36 19 NNO 1035,1 18 0,0
26.05.2020 16:00:00 16,5 12,8 19 10 29 15 NNO 1035,4 - 0,0
26.05.2020 15:00:00 16,6 12,5 20 11 32 18 NNO 1035,6 - 0,0
26.05.2020 14:00:00 16,4 12,2 23 13 32 17 NNO 1035,7 - 0,0
26.05.2020 13:00:00 16,5 12,1 19 11 28 15 NNO 1036,0 - 0,0
26.05.2020 12:00:00 16,6 12,1 18 10 29 16 NNO 1036,0 - 0,0
26.05.2020 11:00:00 15,6 11,8 21 12 29 16 NNO 1036,0 18 0,0
26.05.2020 10:00:00 14,7 11,8 21 11 28 15 NNO 1036,1 - 0,0
26.05.2020 09:00:00 13,9 11,8 19 11 27 14 NNO 1035,9 - 0,0
26.05.2020 08:00:00 12,8 11,4 16 9 23 12 N 1035,5 - 0,0
26.05.2020 07:00:00 12,3 10,9 14 8 19 10 NNO 1035,2 - 0,0
26.05.2020 06:00:00 12,2 10,9 16 9 23 13 ONO 1034,9 - 0,0
26.05.2020 05:00:00 12,3 11,4 16 9 22 12 NO 1034,9 20 0,0
26.05.2020 04:00:00 12,3 11,4 18 10 22 12 NO 1035,0 - 0,2
26.05.2020 03:00:00 12,5 11,4 17 9 24 13 NNO 1035,1 - 0,0

tt = temperatuur
td = dauwpunt
ff = windsnelheid
fx = windstoten
dd = windrichting
ppp = luchtdruk
vv = zicht
rr = neerslag

Weerstations in de omgeving